Weather in Novoskatovka

Russia / Omsk Oblast     54°20′10″N   72°17′03″E
temp.,
°C
wind,
m/s
gust,
m/s
humid.,
%
clouds,
%
prec.,
mm/h
press.,
hPa
HPBL,
m
18 october, mon
mon1800:00+7wsw3577100 0.0 102368
03:00+6w34745 0.0 102358
06:00+5wsw34765 0.0 102448
09:00+5sw34675 0.0 102490
12:00+10sw45575 0.0 1024376
15:00+13sw455647 0.0 1023745
18:00+10ssw336119 0.0 102221
21:00+9ssw3459100 0.0 102342
19 october, tue
tue1900:00+9ssw3558100 0.0 102383
03:00+9ssw355997 0.0 102284
06:00+7sw346467 0.0 102250
09:00+7ssw366521 0.0 1022107
12:00+12ssw564939 0.0 1021367
15:00+15s574070 0.0 1019731
18:00+12sse4751100 0.0 1018113
21:00+9sse4106193 0.0 1018188
20 october, wed
wed2000:00+8sse496151 0.0 1016161
03:00+6sse466070 0.0 101587
06:00+5s465897 0.0 101484
09:00+6s4753100 0.0 1013134
12:00+11s573692 0.0 1012304
15:00+13s573058 0.0 1010470
18:00+10sse484169 0.0 1010129
21:00+9sse4946100 0.0 1009131
21 october, thu
thu2100:00+8s4654100 0.0 100790
03:00+7s4655100 0.0 100696
06:00+7s4654100 0.0 100588
09:00+7s4850100 0.0 1004152
12:00+11s474068 0.0 1003256
15:00+14ssw5732100 0.0 1002767
18:00+8wsw6978100 0.0 1004570
21:00+7ssw613735 0.1 1007550
22 october, fri
fri2200:00+5sw611664 0.1 1008538
03:00+4ssw511796 0.0 1009450
06:00+3s613635 0.0 1009508
09:00+3ssw6115966 0.0 1010961
12:00+4sw796399 0.0 10091143
15:00+5sw6960100 0.0 10091344
18:00+4sw61177100 0.0 1009937
21:00+5sw81271100 0.0 10081182